• In Czech Republic
  • List of Countries
  • For 7 days
  • Water Temperature
  • Satellite Maps
  • Weather Map
  • Weather Widgets
  • user-avatar
    Login

    Hourly Weather Kaprun

    Today, 22 May, Tuesday

    Time Temperature Precipitation Wind Pressure Humidity
    00:00 +2°C° 0 mm 2 mps 595 mmHg 94%
    01:00 +2°C° 0 mm 2 mps 595 mmHg 95%
    02:00 +2°C° 0 mm 2 mps 594 mmHg 95%
    03:00 +2°C° 0 mm 2 mps 594 mmHg 95%
    04:00 +2°C° 0 mm 2 mps 594 mmHg 95%
    05:00 +4°C° 0 mm 1 mps 595 mmHg 91%
    06:00 +5°C° 0 mm 1 mps 595 mmHg 88%
    07:00 +7°C° 0 mm 1 mps 596 mmHg 82%
    08:00 +8°C° 0 mm 1 mps 597 mmHg 74%
    09:00 +10°C° 0 mm 1 mps 597 mmHg 65%
    10:00 +11°C° 0 mm 1 mps 598 mmHg 56%
    11:00 +11°C° 0.2 mm 1 mps 598 mmHg 58%
    12:00 +11°C° 0.2 mm 1 mps 598 mmHg 61%
    13:00 +10°C° 0 mm 1 mps 598 mmHg 67%
    14:00 +10°C° 0.2 mm 1 mps 598 mmHg 67%
    15:00 +11°C° 0.2 mm 1 mps 598 mmHg 67%
    16:00 +10°C° 0.2 mm 2 mps 598 mmHg 68%
    17:00 +10°C° 0.1 mm 1 mps 597 mmHg 73%
    18:00 +9°C° 0.1 mm 1 mps 597 mmHg 78%
    19:00 +8°C° 0.1 mm 1 mps 596 mmHg 83%
    20:00 +7°C° 0 mm 1 mps 596 mmHg 86%
    21:00 +5°C° 0 mm 1 mps 596 mmHg 89%
    22:00 +3°C° 0 mm 2 mps 596 mmHg 92%
    23:00 +3°C° 0 mm 2 mps 596 mmHg 92%

    Tomorrow, 23 May, Wednesday

    Time Temperature Precipitation Wind Pressure Humidity
    00:00 +3°C° 0 mm 2 mps 596 mmHg 92%
    01:00 +2°C° 0 mm 2 mps 596 mmHg 92%
    02:00 +3°C° 0 mm 1 mps 596 mmHg 92%
    03:00 +3°C° 0 mm 1 mps 596 mmHg 92%
    04:00 +3°C° 0 mm 1 mps 596 mmHg 92%
    05:00 +5°C° 0 mm 1 mps 597 mmHg 86%
    06:00 +6°C° 0 mm 1 mps 598 mmHg 81%
    07:00 +7°C° 0 mm 0 mps 599 mmHg 75%
    08:00 +9°C° 0 mm 0 mps 599 mmHg 68%
    09:00 +12°C° 0 mm 1 mps 600 mmHg 60%
    10:00 +14°C° 0 mm 1 mps 601 mmHg 53%
    11:00 +14°C° 0.3 mm 1 mps 601 mmHg 55%
    12:00 +14°C° 0.3 mm 1 mps 601 mmHg 57%
    13:00 +14°C° 0.3 mm 2 mps 601 mmHg 60%
    14:00 +14°C° 1.1 mm 2 mps 601 mmHg 64%
    15:00 +13°C° 1.1 mm 2 mps 600 mmHg 68%
    16:00 +13°C° 1.1 mm 2 mps 600 mmHg 73%
    17:00 +12°C° 1.1 mm 1 mps 600 mmHg 78%
    18:00 +11°C° 1.1 mm 1 mps 599 mmHg 83%
    19:00 +10°C° 1.1 mm 1 mps 599 mmHg 88%
    20:00 +9°C° 0.7 mm 1 mps 599 mmHg 90%
    21:00 +7°C° 0.7 mm 1 mps 599 mmHg 92%
    22:00 +6°C° 0.7 mm 1 mps 599 mmHg 94%
    23:00 +6°C° 0.2 mm 1 mps 598 mmHg 94%

    Day after tomorrow, 24 May, Thursday

    Time Temperature Precipitation Wind Pressure Humidity
    00:00 +5°C° 0.2 mm 1 mps 598 mmHg 94%
    01:00 +5°C° 0.2 mm 1 mps 598 mmHg 94%
    02:00 +5°C° 0.1 mm 1 mps 598 mmHg 94%
    03:00 +4°C° 0.1 mm 1 mps 598 mmHg 94%
    04:00 +4°C° 0.1 mm 1 mps 598 mmHg 94%
    05:00 +6°C° 0.1 mm 1 mps 599 mmHg 89%
    06:00 +7°C° 0.1 mm 1 mps 600 mmHg 84%
    07:00 +8°C° 0.1 mm 0 mps 601 mmHg 80%
    08:00 +10°C° 0.1 mm 0 mps 601 mmHg 74%
    09:00 +12°C° 0.1 mm 1 mps 602 mmHg 68%
    10:00 +14°C° 0.1 mm 1 mps 602 mmHg 62%
    11:00 +14°C° 1 mm 1 mps 602 mmHg 65%
    12:00 +14°C° 1 mm 1 mps 602 mmHg 67%
    13:00 +14°C° 1 mm 1 mps 602 mmHg 70%
    14:00 +13°C° 1.7 mm 1 mps 601 mmHg 74%
    15:00 +13°C° 1.7 mm 1 mps 601 mmHg 78%
    16:00 +12°C° 1.7 mm 1 mps 601 mmHg 83%
    17:00 +11°C° 1.1 mm 1 mps 600 mmHg 86%
    18:00 +11°C° 1.1 mm 1 mps 600 mmHg 90%
    19:00 +9°C° 1.1 mm 0 mps 600 mmHg 93%
    20:00 +9°C° 0.4 mm 1 mps 600 mmHg 94%
    21:00 +8°C° 0.4 mm 1 mps 600 mmHg 95%
    22:00 +7°C° 0.4 mm 1 mps 600 mmHg 96%
    23:00 +7°C° 0.1 mm 1 mps 600 mmHg 96%

    25 May, Friday

    Time Temperature Precipitation Wind Pressure Humidity
    00:00 +6°C° 0.1 mm 1 mps 599 mmHg 96%
    01:00 +6°C° 0.1 mm 1 mps 599 mmHg 96%
    02:00 +6°C° 0 mm 1 mps 599 mmHg 95%
    03:00 +5°C° 0 mm 1 mps 599 mmHg 95%
    04:00 +5°C° 0 mm 1 mps 599 mmHg 95%
    05:00 +7°C° 0 mm 1 mps 599 mmHg 92%
    06:00 +8°C° 0 mm 1 mps 600 mmHg 88%
    07:00 +10°C° 0 mm 1 mps 601 mmHg 85%
    08:00 +12°C° 0.1 mm 1 mps 602 mmHg 75%
    09:00 +14°C° 0.1 mm 1 mps 603 mmHg 65%
    10:00 +16°C° 0.1 mm 1 mps 603 mmHg 55%
    11:00 +16°C° 0.4 mm 1 mps 603 mmHg 54%
    12:00 +16°C° 0.4 mm 1 mps 603 mmHg 54%
    13:00 +17°C° 0.4 mm 2 mps 603 mmHg 53%
    14:00 +16°C° 0.5 mm 2 mps 603 mmHg 56%
    15:00 +16°C° 0.5 mm 2 mps 603 mmHg 59%
    16:00 +15°C° 0.5 mm 2 mps 603 mmHg 62%
    17:00 +14°C° 0.7 mm 1 mps 602 mmHg 70%
    18:00 +13°C° 0.7 mm 1 mps 602 mmHg 79%
    19:00 +11°C° 0.7 mm 1 mps 601 mmHg 88%
    20:00 +10°C° 0.3 mm 1 mps 601 mmHg 89%
    21:00 +9°C° 0.3 mm 1 mps 601 mmHg 91%
    22:00 +7°C° 0.3 mm 1 mps 600 mmHg 92%
    23:00 +7°C° 0 mm 1 mps 600 mmHg 92%

    26 May, Saturday

    Time Temperature Precipitation Wind Pressure Humidity
    00:00 +6°C° 0 mm 1 mps 600 mmHg 91%
    01:00 +6°C° 0 mm 1 mps 600 mmHg 91%
    02:00 +5°C° 0 mm 1 mps 600 mmHg 90%
    03:00 +5°C° 0 mm 1 mps 599 mmHg 90%
    04:00 +5°C° 0 mm 1 mps 599 mmHg 89%
    05:00 +7°C° 0 mm 1 mps 600 mmHg 85%
    06:00 +9°C° 0 mm 1 mps 601 mmHg 80%
    07:00 +10°C° 0 mm 0 mps 602 mmHg 75%
    08:00 +13°C° 0 mm 1 mps 603 mmHg 65%
    09:00 +16°C° 0 mm 1 mps 604 mmHg 55%
    10:00 +19°C° 0 mm 1 mps 606 mmHg 44%
    11:00 +19°C° 0.1 mm 1 mps 606 mmHg 43%
    12:00 +20°C° 0.1 mm 1 mps 606 mmHg 41%
    13:00 +20°C° 0.1 mm 1 mps 606 mmHg 40%
    14:00 +20°C° 0.3 mm 1 mps 605 mmHg 44%
    15:00 +19°C° 0.3 mm 1 mps 605 mmHg 47%
    16:00 +18°C° 0.3 mm 2 mps 605 mmHg 51%
    17:00 +16°C° 0.7 mm 1 mps 604 mmHg 62%
    18:00 +15°C° 0.7 mm 1 mps 604 mmHg 73%
    19:00 +12°C° 0.7 mm 0 mps 603 mmHg 84%
    20:00 +11°C° 0.1 mm 1 mps 603 mmHg 86%
    21:00 +10°C° 0.1 mm 1 mps 602 mmHg 88%
    22:00 +9°C° 0.1 mm 1 mps 602 mmHg 90%
    23:00 +8°C° 0 mm 1 mps 602 mmHg 90%

    27 May, Sunday

    Time Temperature Precipitation Wind Pressure Humidity
    00:00 +8°C° 0 mm 1 mps 602 mmHg 89%
    01:00 +7°C° 0 mm 1 mps 601 mmHg 89%
    02:00 +7°C° 0 mm 1 mps 601 mmHg 89%
    03:00 +7°C° 0 mm 1 mps 601 mmHg 88%
    04:00 +6°C° 0 mm 1 mps 600 mmHg 88%
    05:00 +8°C° 0 mm 1 mps 601 mmHg 83%
    06:00 +10°C° 0 mm 1 mps 602 mmHg 78%
    07:00 +12°C° 0 mm 1 mps 603 mmHg 73%
    08:00 +15°C° 0 mm 1 mps 604 mmHg 62%
    09:00 +18°C° 0 mm 1 mps 605 mmHg 52%
    10:00 +20°C° 0 mm 1 mps 606 mmHg 41%
    11:00 +21°C° 0 mm 1 mps 606 mmHg 39%
    12:00 +22°C° 0 mm 1 mps 606 mmHg 37%
    13:00 +22°C° 0 mm 1 mps 606 mmHg 35%
    14:00 +21°C° 0.3 mm 1 mps 606 mmHg 40%
    15:00 +21°C° 0.3 mm 1 mps 605 mmHg 45%
    16:00 +20°C° 0.3 mm 1 mps 605 mmHg 50%
    17:00 +18°C° 0.7 mm 1 mps 604 mmHg 61%
    18:00 +15°C° 0.7 mm 1 mps 603 mmHg 72%
    19:00 +13°C° 0.7 mm 0 mps 603 mmHg 83%
    20:00 +13°C° 0.2 mm 1 mps 602 mmHg 84%
    21:00 +12°C° 0.2 mm 1 mps 602 mmHg 85%
    22:00 +11°C° 0.2 mm 1 mps 602 mmHg 85%
    23:00 +10°C° 0.1 mm 1 mps 602 mmHg 85%
    Show more